Hourly Weather Rudnya

Today, 20 April, Tuesday

Time Temperature Precipitation Wind Pressure Humidity
00:00 +7°C° 0 mm 2 mps 741 mmHg 84%
01:00 +6°C° 0 mm 2 mps 741 mmHg 86%
02:00 +6°C° 0 mm 2 mps 740 mmHg 88%
03:00 +5°C° 0 mm 2 mps 740 mmHg 89%
04:00 +5°C° 0 mm 2 mps 740 mmHg 90%
05:00 +4°C° 0 mm 2 mps 740 mmHg 90%
06:00 +5°C° 0 mm 2 mps 740 mmHg 86%
07:00 +6°C° 0 mm 2 mps 740 mmHg 82%
08:00 +7°C° 0 mm 2 mps 740 mmHg 78%
09:00 +9°C° 0.3 mm 2 mps 740 mmHg 73%
10:00 +10°C° 0.3 mm 2 mps 740 mmHg 68%
11:00 +11°C° 0.3 mm 3 mps 739 mmHg 63%
12:00 +12°C° 0.4 mm 3 mps 739 mmHg 60%
13:00 +12°C° 0.4 mm 3 mps 739 mmHg 57%
14:00 +13°C° 0.4 mm 3 mps 739 mmHg 54%
15:00 +12°C° 0.2 mm 3 mps 738 mmHg 57%
16:00 +12°C° 0.2 mm 3 mps 738 mmHg 59%
17:00 +11°C° 0.2 mm 3 mps 738 mmHg 61%
18:00 +10°C° 0 mm 3 mps 738 mmHg 67%
19:00 +9°C° 0 mm 2 mps 739 mmHg 73%
20:00 +8°C° 0 mm 2 mps 739 mmHg 79%
21:00 +8°C° 0 mm 1 mps 739 mmHg 80%
22:00 +8°C° 0 mm 1 mps 739 mmHg 80%
23:00 +6°C° 0 mm 0 mps 739 mmHg 81%

Tomorrow, 21 April, Wednesday

Time Temperature Precipitation Wind Pressure Humidity
00:00 +7°C° 0 mm 1 mps 739 mmHg 81%
01:00 +7°C° 0 mm 1 mps 739 mmHg 81%
02:00 +7°C° 0 mm 1 mps 739 mmHg 81%
03:00 +7°C° 0 mm 1 mps 739 mmHg 84%
04:00 +5°C° 0 mm 2 mps 739 mmHg 86%
05:00 +5°C° 0 mm 2 mps 739 mmHg 89%
06:00 +5°C° 0 mm 3 mps 739 mmHg 86%
07:00 +7°C° 0 mm 3 mps 739 mmHg 83%
08:00 +7°C° 0 mm 4 mps 739 mmHg 79%
09:00 +10°C° 0.3 mm 4 mps 739 mmHg 74%
10:00 +11°C° 0.3 mm 4 mps 739 mmHg 68%
11:00 +13°C° 0.3 mm 5 mps 739 mmHg 62%
12:00 +13°C° 0.5 mm 5 mps 739 mmHg 59%
13:00 +13°C° 0.5 mm 5 mps 739 mmHg 56%
14:00 +14°C° 0.5 mm 5 mps 739 mmHg 53%
15:00 +14°C° 0.2 mm 5 mps 739 mmHg 56%
16:00 +13°C° 0.2 mm 4 mps 739 mmHg 58%
17:00 +13°C° 0.2 mm 4 mps 739 mmHg 61%
18:00 +12°C° 0.1 mm 3 mps 739 mmHg 67%
19:00 +10°C° 0.1 mm 3 mps 739 mmHg 73%
20:00 +9°C° 0.1 mm 3 mps 739 mmHg 79%
21:00 +8°C° 0.1 mm 3 mps 739 mmHg 82%
22:00 +8°C° 0.1 mm 3 mps 739 mmHg 84%
23:00 +7°C° 0.1 mm 3 mps 740 mmHg 87%

Day after tomorrow, 22 April, Thursday

Time Temperature Precipitation Wind Pressure Humidity
00:00 +7°C° 0 mm 3 mps 740 mmHg 87%
01:00 +7°C° 0 mm 3 mps 740 mmHg 88%
02:00 +5°C° 0 mm 3 mps 740 mmHg 88%
03:00 +5°C° 0 mm 3 mps 740 mmHg 89%
04:00 +5°C° 0 mm 3 mps 740 mmHg 89%
05:00 +5°C° 0 mm 3 mps 740 mmHg 90%
06:00 +7°C° 0 mm 4 mps 740 mmHg 88%
07:00 +8°C° 0 mm 4 mps 740 mmHg 85%
08:00 +10°C° 0 mm 4 mps 740 mmHg 83%
09:00 +10°C° 0.2 mm 4 mps 740 mmHg 82%
10:00 +10°C° 0.2 mm 4 mps 741 mmHg 82%
11:00 +11°C° 0.2 mm 4 mps 741 mmHg 81%
12:00 +12°C° 0.2 mm 5 mps 740 mmHg 76%
13:00 +13°C° 0.2 mm 5 mps 740 mmHg 70%
14:00 +14°C° 0.2 mm 5 mps 740 mmHg 64%
15:00 +14°C° 0.6 mm 5 mps 740 mmHg 65%
16:00 +14°C° 0.6 mm 4 mps 740 mmHg 67%
17:00 +14°C° 0.6 mm 4 mps 740 mmHg 68%
18:00 +12°C° 0.4 mm 4 mps 740 mmHg 74%
19:00 +11°C° 0.4 mm 4 mps 740 mmHg 81%
20:00 +8°C° 0.4 mm 4 mps 740 mmHg 87%
21:00 +8°C° 0 mm 3 mps 740 mmHg 90%
22:00 +7°C° 0 mm 3 mps 741 mmHg 92%
23:00 +7°C° 0 mm 3 mps 741 mmHg 95%

23 April, Friday

Time Temperature Precipitation Wind Pressure Humidity
00:00 +7°C° 0.5 mm 2 mps 741 mmHg 94%
01:00 +7°C° 0.5 mm 2 mps 741 mmHg 94%
02:00 +8°C° 0.5 mm 1 mps 740 mmHg 94%
03:00 +6°C° 1.2 mm 2 mps 741 mmHg 94%
04:00 +5°C° 1.2 mm 3 mps 741 mmHg 93%
05:00 +4°C° 1.2 mm 4 mps 741 mmHg 93%
06:00 +4°C° 1 mm 4 mps 741 mmHg 92%
07:00 +3°C° 1 mm 3 mps 742 mmHg 90%
08:00 +3°C° 1 mm 3 mps 742 mmHg 89%
09:00 +4°C° 0.1 mm 4 mps 742 mmHg 80%
10:00 +6°C° 0.1 mm 4 mps 743 mmHg 70%
11:00 +7°C° 0.1 mm 5 mps 743 mmHg 61%
12:00 +7°C° 0.1 mm 6 mps 743 mmHg 60%
13:00 +8°C° 0.1 mm 6 mps 743 mmHg 58%
14:00 +8°C° 0.1 mm 7 mps 743 mmHg 56%
15:00 +8°C° 0 mm 7 mps 743 mmHg 56%
16:00 +8°C° 0 mm 7 mps 743 mmHg 57%
17:00 +7°C° 0 mm 6 mps 744 mmHg 57%
18:00 +6°C° 0 mm 5 mps 744 mmHg 63%
19:00 +5°C° 0 mm 4 mps 744 mmHg 69%
20:00 +3°C° 0 mm 3 mps 745 mmHg 75%
21:00 +3°C° 0 mm 3 mps 745 mmHg 76%
22:00 +2°C° 0 mm 3 mps 745 mmHg 78%
23:00 +1°C° 0 mm 4 mps 745 mmHg 80%

24 April, Saturday

Time Temperature Precipitation Wind Pressure Humidity
00:00 +1°C° 0 mm 3 mps 745 mmHg 82%
01:00 +1°C° 0 mm 3 mps 745 mmHg 84%
02:00 +1°C° 0 mm 3 mps 745 mmHg 86%
03:00 +1°C° 0 mm 3 mps 745 mmHg 87%
04:00 +1°C° 0 mm 3 mps 745 mmHg 87%
05:00 +2°C° 0 mm 3 mps 745 mmHg 88%
06:00 +2°C° 0 mm 3 mps 746 mmHg 80%
07:00 +3°C° 0 mm 3 mps 746 mmHg 72%
08:00 +3°C° 0 mm 3 mps 746 mmHg 64%
09:00 +4°C° 0 mm 3 mps 746 mmHg 58%
10:00 +5°C° 0 mm 3 mps 746 mmHg 51%
11:00 +8°C° 0 mm 3 mps 746 mmHg 44%
12:00 +8°C° 0 mm 3 mps 745 mmHg 44%
13:00 +9°C° 0 mm 3 mps 745 mmHg 44%
14:00 +10°C° 0 mm 4 mps 744 mmHg 44%
15:00 +10°C° 0 mm 4 mps 744 mmHg 46%
16:00 +10°C° 0 mm 4 mps 744 mmHg 49%
17:00 +9°C° 0 mm 5 mps 743 mmHg 52%
18:00 +8°C° 0 mm 4 mps 743 mmHg 58%
19:00 +7°C° 0 mm 4 mps 743 mmHg 65%
20:00 +7°C° 0 mm 3 mps 743 mmHg 71%
21:00 +5°C° 0.1 mm 4 mps 744 mmHg 74%
22:00 +5°C° 0.1 mm 4 mps 744 mmHg 77%
23:00 +3°C° 0.1 mm 5 mps 744 mmHg 81%

25 April, Sunday

Time Temperature Precipitation Wind Pressure Humidity
00:00 +3°C° 0 mm 5 mps 744 mmHg 83%
01:00 +2°C° 0 mm 5 mps 744 mmHg 86%
02:00 +1°C° 0 mm 5 mps 744 mmHg 89%
03:00 +1°C° 0 mm 5 mps 744 mmHg 88%
04:00 0°C° 0 mm 5 mps 745 mmHg 86%
05:00 0°C° 0 mm 5 mps 745 mmHg 84%
06:00 0°C° 0 mm 5 mps 745 mmHg 77%
07:00 +1°C° 0 mm 5 mps 746 mmHg 71%
08:00 +1°C° 0 mm 5 mps 746 mmHg 65%
09:00 +2°C° 0 mm 6 mps 746 mmHg 59%
10:00 +4°C° 0 mm 6 mps 746 mmHg 54%
11:00 +5°C° 0 mm 6 mps 746 mmHg 48%
12:00 +5°C° 0 mm 7 mps 746 mmHg 49%
13:00 +5°C° 0 mm 7 mps 746 mmHg 50%
14:00 +5°C° 0 mm 7 mps 746 mmHg 51%
15:00 +5°C° 0.1 mm 7 mps 746 mmHg 53%
16:00 +5°C° 0.1 mm 7 mps 746 mmHg 56%
17:00 +5°C° 0.1 mm 7 mps 746 mmHg 58%
18:00 +5°C° 0 mm 5 mps 747 mmHg 64%
19:00 +4°C° 0 mm 4 mps 747 mmHg 70%
20:00 +2°C° 0 mm 3 mps 747 mmHg 75%
21:00 +2°C° 0 mm 3 mps 747 mmHg 77%
22:00 +1°C° 0 mm 3 mps 747 mmHg 80%
23:00 +1°C° 0 mm 3 mps 747 mmHg 82%
Show more